Wind_Speed
30 32 34 37 40 43 46 49 51 49 48 46 44 42 42 43 44 45 49 49 46 45 47 48 51 55 56 57 59 61 63 65 67 68 70 70 72 73 74 76 77 78 77
34 33 35 37 41 44 48 51 52 52 52 50 48 47 48 48 50 51 51 49 47 48 53 55 57 58 59 61 64 66 68 69 70 73 76 77 76 76 77 77 76 74 72
35 34 34 37 40 43 47 50 52 53 52 52 51 51 52 53 54 53 53 50 49 58 61 59 60 62 63 66 69 72 74 74 75 78 81 83 82 79 76 73 69 66 63
32 34 36 38 41 43 45 47 48 50 51 51 52 53 54 55 56 56 57 58 64 67 67 69 71 73 74 75 77 79 80 81 82 82 84 84 81 76 71 63 60 59 59
32 35 37 40 41 42 43 44 46 47 48 48 49 50 52 53 55 56 58 62 66 70 73 76 79 81 83 85 86 86 86 86 85 84 80 75 68 62 59 54 51 52 53
38 38 37 38 39 40 41 42 43 43 43 44 46 48 50 52 55 58 61 65 68 72 76 80 83 86 88 90 90 89 86 83 79 72 65 58 53 50 49 48 46 45 45
42 40 37 36 37 37 37 38 39 40 42 45 46 48 51 54 57 61 64 68 72 76 79 82 83 84 85 85 82 77 72 66 59 53 49 48 47 45 44 43 43 42 40
40 38 36 36 36 36 36 37 40 42 45 47 49 51 53 56 60 65 70 74 77 78 78 77 74 72 68 65 59 53 48 45 43 43 43 43 42 41 41 41 41 40 38
37 37 38 38 38 39 39 41 43 46 48 51 52 54 57 61 66 70 74 75 74 70 66 60 56 52 49 46 42 39 38 38 38 39 39 38 38 37 38 39 39 37 34
40 42 42 41 41 41 42 44 46 48 51 52 54 57 62 66 67 66 64 61 55 50 46 44 43 42 41 39 37 36 36 37 37 38 38 37 37 37 37 38 36 33 30
43 45 45 44 43 43 44 46 49 51 52 54 57 61 64 62 58 53 49 44 40 37 36 36 36 35 34 35 35 34 34 33 33 33 32 32 33 34 35 34 31 29 28
47 48 47 46 45 45 47 49 51 52 54 56 59 62 59 52 45 43 41 38 37 35 35 34 34 34 33 32 31 30 29 28 28 29 28 28 28 28 27 26 24 23 23
48 49 48 47 47 48 49 51 53 54 56 58 60 57 48 40 38 38 38 39 39 39 38 38 37 37 36 34 34 33 32 31 30 28 28 27 26 24 22 20 19 19 19
48 49 47 47 48 50 51 53 54 55 57 58 55 46 37 34 34 37 38 39 40 41 41 41 41 40 39 39 38 37 36 35 33 30 28 27 24 21 19 18 18 19 18
50 48 47 48 49 51 53 54 55 57 58 55 44 34 31 31 34 36 36 38 41 43 44 44 44 42 41 40 39 38 37 36 33 32 30 27 24 21 19 18 18 19 19
48 47 48 49 50 52 54 54 56 58 54 42 31 27 28 30 32 33 36 39 42 44 46 45 43 41 38 38 37 36 35 34 31 30 29 27 23 20 19 18 18 18 17
46 47 48 49 51 52 52 55 57 52 39 26 22 23 26 28 30 33 36 40 43 45 46 43 38 35 34 34 34 34 32 31 30 28 28 26 22 19 18 17 16 14 13
46 47 48 49 50 50 52 54 47 33 22 19 20 23 25 27 31 34 38 42 44 45 44 41 37 35 34 34 33 32 31 30 29 27 26 25 22 19 17 15 13 12 12
46 46 47 48 46 48 49 41 28 19 17 18 21 22 25 29 33 37 42 44 44 43 42 39 37 37 36 34 32 30 28 27 27 26 25 23 21 19 16 13 11 11 13
44 45 44 42 44 44 36 24 18 16 17 18 20 24 28 32 36 41 44 45 44 41 39 37 37 37 37 34 32 28 25 24 24 24 24 22 19 17 14 12 10 11 12
42 40 38 39 41 33 23 17 15 16 17 19 23 26 31 35 40 44 46 44 42 41 39 38 37 37 35 33 31 27 22 21 21 22 22 20 17 15 12 10 9 8 6
36 34 35 37 31 22 16 14 15 16 18 22 26 30 34 39 43 45 45 43 42 41 40 38 37 37 35 31 29 27 22 18 18 19 18 17 14 14 12 10 7 3 2
30 31 34 31 21 14 12 13 14 17 21 25 29 33 38 42 44 44 43 42 42 42 41 38 37 36 33 29 28 26 22 18 15 15 14 13 12 12 11 10 8 6 9
28 31 29 20 14 11 11 12 15 18 23 27 32 36 40 43 44 44 42 41 42 42 41 39 35 33 30 26 25 24 23 19 13 10 9 8 10 11 12 12 11 11 12
27 27 20 13 10 9 10 12 15 20 25 29 33 38 41 43 43 43 42 41 41 41 39 37 33 30 27 24 22 22 22 17 8 5 5 5 9 11 14 16 16 14 14
24 18 12 10 8 7 9 12 16 21 26 30 35 39 40 41 42 42 41 41 41 39 37 34 31 28 27 25 23 21 20 13 2 3 3 4 9 12 15 19 18 16 13
Wind_Direction
276 284 288 293 299 302 302 304 310 314 313 311 309 307 305 303 301 298 298 294 287 282 283 286 291 293 292 291 290 290 290 290 291 291 290 290 290 291 291 290 289 288 287
276 281 285 291 295 297 299 302 305 305 306 306 306 306 305 303 302 300 300 295 290 291 295 294 293 291 290 289 290 290 289 289 289 290 291 291 290 291 290 289 288 287 286
280 283 284 284 286 289 292 296 298 300 302 303 304 304 302 301 301 302 301 297 292 297 299 296 294 292 292 292 292 291 291 291 290 292 294 294 294 291 288 286 284 282 281
287 284 281 281 283 287 290 293 295 298 300 301 300 300 300 300 301 300 299 296 296 298 298 298 298 298 298 297 296 295 295 294 294 293 294 294 293 292 287 284 281 280 279
291 287 285 285 287 290 292 294 295 296 297 298 299 300 300 299 299 298 297 297 297 298 298 298 298 298 298 297 295 294 293 293 293 293 293 292 290 288 287 285 282 282 282
294 291 289 289 292 294 295 296 297 298 299 300 300 299 299 298 297 296 296 296 296 296 296 296 296 296 296 295 293 292 292 292 292 292 291 289 287 286 285 286 286 286 286
293 292 292 294 297 298 297 297 299 300 301 300 300 299 298 298 297 297 297 296 295 294 294 294 295 295 295 294 293 293 292 292 292 291 289 288 287 286 285 286 286 287 288
291 293 297 301 303 303 301 301 302 302 302 301 300 300 300 300 301 301 300 299 297 296 295 295 296 296 297 298 297 296 295 293 292 292 291 290 288 286 285 286 287 287 286
292 297 301 306 307 306 304 304 305 304 304 303 303 304 305 305 306 306 304 302 300 298 297 297 298 300 302 303 302 300 298 296 294 293 292 290 288 286 285 286 287 287 286
293 298 301 307 310 308 306 305 304 304 305 305 306 307 309 310 310 310 310 308 306 304 302 300 300 301 302 303 303 302 300 298 296 294 292 290 287 286 285 285 285 286 287
294 297 301 306 309 309 307 305 305 306 307 308 309 311 312 312 313 314 316 317 317 314 311 308 306 306 305 304 303 304 303 303 302 301 299 296 292 289 286 283 280 281 286
292 297 302 307 309 309 307 307 307 308 309 310 312 313 314 314 315 317 319 322 323 322 318 314 311 309 306 303 302 302 302 304 306 308 307 304 300 295 289 283 279 280 285
293 298 304 307 308 308 308 308 308 309 310 311 313 314 314 315 316 319 321 322 323 323 321 316 312 307 302 297 295 294 294 295 298 302 306 305 304 301 294 285 278 280 287
292 298 304 306 306 307 308 308 308 309 311 312 314 314 313 315 317 320 323 325 327 326 323 318 313 307 302 297 294 292 290 290 290 292 296 300 300 298 292 284 278 279 283
292 297 301 303 305 307 307 307 308 310 312 313 312 311 311 314 318 322 326 329 330 329 325 320 314 309 305 300 295 291 290 287 286 286 287 291 294 292 288 284 280 281 283
294 298 300 304 306 306 307 308 310 312 313 311 309 309 311 316 321 325 329 331 332 332 329 324 319 315 311 306 301 294 288 286 284 282 282 283 286 287 285 284 285 286 286
295 297 301 304 305 306 308 311 313 313 312 310 308 310 315 320 323 327 331 333 334 333 331 326 323 321 320 315 310 303 293 287 283 280 278 278 277 280 282 281 287 290 291
294 297 300 302 304 307 310 313 314 314 312 310 311 315 320 323 326 330 332 333 334 334 332 327 323 322 323 321 316 310 300 290 284 279 277 275 272 273 276 274 278 283 290
293 296 298 301 305 309 313 314 314 313 312 313 317 321 324 326 329 331 332 332 332 333 332 328 324 324 323 320 317 312 305 297 288 282 277 273 267 264 269 268 270 280 290
290 293 297 301 307 312 313 311 310 310 313 318 323 325 326 328 330 331 332 332 332 331 329 326 325 325 324 323 320 314 304 298 293 287 280 271 262 256 260 259 266 285 294
290 294 299 305 310 311 307 306 306 310 317 324 327 327 327 329 331 333 333 333 332 331 330 327 326 326 325 323 325 323 310 297 293 290 284 273 256 246 244 245 261 287 303
290 295 302 308 307 302 299 300 305 315 325 330 329 328 329 331 333 333 333 332 332 333 332 330 327 327 326 324 327 330 324 305 292 287 284 274 252 237 226 224 237 251 132
290 298 305 306 297 288 289 299 311 325 331 331 329 330 331 333 333 334 334 334 334 334 335 333 330 328 327 324 325 331 332 319 297 287 285 272 243 223 205 196 193 176 151
295 303 304 294 277 272 289 306 322 331 331 330 330 333 335 335 335 336 339 338 336 337 338 337 335 333 330 327 325 328 330 324 302 278 275 260 224 201 180 169 164 161 158
301 301 291 266 253 268 297 317 327 331 331 331 334 338 338 338 338 340 343 341 340 340 341 341 340 338 337 337 336 335 335 332 303 251 245 230 203 183 169 163 159 157 156
299 289 260 238 244 279 309 322 330 333 334 338 341 342 342 343 344 343 344 344 344 344 345 344 343 342 345 347 347 346 346 349 349 177 187 198 195 182 168 165 163 163 163
Height
5854 5853 5849 5844 5840 5835 5830 5824 5821 5820 5820 5820 5819 5817 5814 5810 5806 5802 5798 5792 5789 5786 5784 5781 5778 5774 5771 5766 5760 5756 5752 5748 5744 5739 5735 5733 5730 5726 5722 5717 5713 5709 5705
5849 5849 5847 5844 5839 5833 5826 5821 5818 5815 5813 5812 5809 5806 5803 5799 5795 5792 5787 5781 5777 5775 5773 5771 5767 5762 5759 5753 5747 5741 5736 5733 5729 5723 5716 5713 5713 5710 5704 5699 5694 5690 5685
5844 5845 5844 5842 5837 5832 5826 5821 5817 5813 5810 5806 5802 5798 5794 5789 5785 5781 5777 5772 5765 5762 5759 5755 5752 5748 5744 5739 5733 5726 5719 5715 5711 5705 5696 5690 5687 5685 5683 5679 5675 5670 5667
5839 5838 5837 5835 5832 5828 5824 5820 5815 5810 5805 5801 5796 5791 5786 5780 5776 5772 5768 5763 5756 5749 5744 5738 5732 5728 5724 5719 5713 5707 5700 5693 5689 5685 5678 5670 5663 5658 5656 5660 5655 5651 5649
5832 5830 5829 5826 5824 5822 5818 5814 5809 5804 5798 5793 5788 5783 5777 5772 5768 5763 5757 5751 5744 5736 5728 5720 5714 5709 5703 5697 5691 5685 5680 5673 5667 5662 5657 5651 5645 5639 5635 5639 5639 5635 5633
5824 5823 5821 5819 5816 5813 5810 5805 5800 5796 5791 5786 5780 5774 5769 5763 5758 5752 5746 5739 5731 5723 5714 5705 5698 5691 5683 5675 5667 5661 5656 5650 5645 5640 5635 5631 5628 5625 5622 5621 5621 5620 5618
5817 5815 5813 5811 5809 5805 5801 5797 5792 5788 5783 5777 5772 5765 5759 5753 5746 5739 5733 5725 5716 5708 5699 5690 5682 5673 5663 5653 5645 5639 5634 5629 5626 5622 5619 5616 5613 5611 5609 5608 5607 5605 5604
5811 5808 5806 5803 5801 5797 5793 5788 5784 5779 5773 5767 5761 5755 5749 5742 5734 5725 5716 5706 5697 5688 5679 5670 5662 5653 5644 5635 5627 5621 5617 5614 5612 5609 5606 5603 5601 5599 5597 5596 5594 5593 5592
5805 5802 5799 5796 5792 5788 5784 5779 5774 5768 5762 5756 5750 5743 5736 5728 5719 5708 5697 5685 5675 5666 5659 5652 5645 5638 5630 5623 5617 5612 5608 5604 5601 5598 5595 5593 5590 5588 5586 5585 5583 5581 5580
5798 5795 5792 5788 5784 5779 5775 5770 5764 5758 5752 5745 5739 5731 5723 5713 5703 5691 5679 5667 5657 5649 5644 5638 5633 5627 5621 5615 5609 5604 5600 5596 5592 5589 5586 5583 5580 5578 5576 5574 5572 5571 5570
5791 5788 5784 5780 5776 5771 5765 5759 5753 5747 5740 5733 5726 5718 5709 5699 5688 5679 5668 5658 5649 5641 5635 5629 5624 5618 5613 5608 5602 5597 5593 5589 5585 5580 5577 5574 5571 5568 5566 5564 5563 5563 5561
5782 5779 5776 5771 5766 5760 5754 5748 5742 5735 5728 5721 5713 5705 5695 5686 5678 5670 5661 5652 5644 5636 5630 5623 5617 5611 5606 5600 5595 5591 5586 5582 5578 5574 5570 5566 5563 5560 5557 5556 5556 5556 5555
5774 5770 5767 5762 5756 5750 5744 5738 5731 5724 5717 5710 5701 5692 5684 5677 5671 5663 5655 5647 5639 5631 5624 5617 5611 5605 5599 5594 5588 5584 5580 5576 5572 5568 5564 5560 5557 5554 5551 5550 5550 5550 5549
5767 5763 5760 5754 5747 5741 5735 5728 5721 5714 5707 5699 5690 5682 5676 5670 5664 5657 5650 5642 5634 5626 5618 5611 5604 5597 5591 5585 5580 5575 5571 5567 5564 5561 5558 5555 5552 5549 5547 5546 5545 5544 5543
5758 5756 5752 5745 5739 5732 5725 5718 5711 5703 5695 5687 5679 5674 5669 5664 5658 5651 5644 5636 5628 5620 5612 5604 5596 5588 5582 5575 5570 5566 5562 5558 5556 5553 5551 5548 5546 5544 5542 5540 5539 5539 5538
5750 5747 5742 5736 5730 5723 5715 5708 5700 5692 5684 5676 5671 5667 5663 5658 5652 5646 5638 5630 5621 5612 5603 5594 5586 5579 5572 5565 5560 5555 5552 5549 5546 5544 5542 5541 5540 5538 5536 5534 5534 5533 5532
5742 5738 5732 5727 5721 5714 5706 5699 5690 5681 5674 5669 5665 5662 5658 5653 5647 5640 5632 5623 5614 5605 5595 5586 5577 5570 5563 5557 5551 5546 5542 5539 5537 5535 5534 5533 5532 5531 5530 5529 5528 5528 5527
5734 5729 5724 5718 5712 5705 5698 5690 5681 5674 5669 5665 5662 5658 5653 5647 5641 5634 5626 5617 5607 5598 5588 5578 5570 5563 5556 5550 5543 5538 5533 5530 5528 5526 5525 5525 5525 5525 5524 5524 5524 5524 5524
5725 5721 5716 5710 5704 5698 5690 5682 5675 5671 5667 5663 5659 5654 5649 5643 5636 5628 5619 5610 5600 5591 5581 5572 5564 5556 5549 5543 5536 5531 5526 5523 5520 5518 5517 5517 5518 5518 5519 5520 5520 5521 5520
5717 5713 5708 5702 5697 5691 5684 5677 5673 5669 5665 5661 5656 5651 5645 5638 5631 5622 5613 5603 5594 5584 5575 5566 5558 5550 5542 5535 5529 5524 5520 5516 5513 5511 5509 5509 5511 5513 5514 5516 5517 5517 5516
5709 5705 5700 5695 5690 5684 5679 5675 5672 5668 5663 5658 5653 5647 5641 5633 5625 5615 5606 5597 5588 5578 5569 5560 5551 5543 5536 5529 5522 5517 5513 5509 5507 5505 5504 5504 5505 5508 5511 5513 5514 5514 5513
5701 5697 5693 5689 5684 5680 5676 5673 5670 5666 5661 5656 5650 5644 5636 5628 5618 5609 5600 5591 5582 5572 5563 5554 5545 5537 5529 5522 5517 5511 5506 5503 5501 5500 5499 5499 5501 5504 5507 5510 5512 5513 5513
5694 5691 5687 5683 5680 5677 5674 5672 5668 5664 5659 5653 5647 5640 5631 5622 5613 5603 5594 5584 5575 5566 5556 5547 5539 5530 5523 5516 5511 5507 5502 5498 5496 5495 5495 5496 5498 5502 5505 5508 5511 5513 5514
5687 5685 5681 5678 5677 5675 5673 5670 5667 5662 5657 5651 5644 5636 5627 5617 5607 5598 5589 5579 5569 5560 5550 5541 5533 5525 5517 5512 5507 5502 5498 5494 5491 5491 5493 5494 5496 5500 5503 5507 5510 5513 5515
5681 5679 5676 5675 5675 5674 5672 5669 5665 5660 5655 5648 5640 5631 5622 5612 5602 5594 5585 5575 5565 5555 5546 5536 5528 5521 5514 5508 5503 5498 5493 5489 5487 5488 5491 5493 5496 5499 5502 5506 5510 5514 5517
5675 5674 5673 5674 5674 5673 5671 5668 5663 5658 5652 5645 5637 5628 5618 5609 5599 5590 5582 5572 5562 5552 5542 5533 5525 5517 5511 5505 5500 5496 5491 5487 5486 5488 5490 5492 5495 5498 5502 5506 5510 5515 5518